User: anonymous   Login
Location: Seattle
(47.6064°N, 122.3308°W)
Time: 04:24:21
(UTC-07:00)
Language:

N. Korean satellite - Orbit

View from above orbital plane
View from above orbital plane
View from above satellite
View from above satellite

Ground track
Ground track

The orbit data is extracted from the following two-line orbital elements,

1 39026U 12072A   21170.90422169  .00002497  00000-0  86255-4 0  9998
2 39026  97.2438 163.7080 0036176  18.7003 341.5558 15.30250506473408
Epoch (UTC): 19 June 2021 21:42:04
Eccentricity: 0.0036176
inclination: 97.2438°
perigee height: 450 km
apogee height: 500 km
right ascension of ascending node: 163.7080°
argument of perigee: 18.7003°
revolutions per day: 15.30250506
mean anomaly at epoch: 341.5558°
orbit number at epoch: 47340

The dashed part of the orbit path shows where the satellite is in the earth's shadow,  

DLR